Time,TemperatureF,DewpointF,PressureIn,WindDirection,WindDirectionDegrees,WindSpeedMPH,WindSpeedGustMPH,Humidity,HourlyPrecipIn,Conditions,Clouds,dailyrainin,SoftwareType,DateUTC
2013-04-23 00:03:00,42.0,37.0,30.44,NE,44,5.0,-999.0,82,-99.99,,,-99.99,,2013-04-23 04:03:00,
2013-04-23 00:12:00,42.0,37.0,30.44,NE,44,5.0,-999.0,82,-99.99,,,-99.99,,2013-04-23 04:12:00,
2013-04-23 00:23:00,42.0,37.0,30.44,NE,38,6.0,-999.0,83,-99.99,,,-99.99,,2013-04-23 04:23:00,
2013-04-23 00:33:00,42.0,38.0,30.43,NE,39,5.0,-999.0,84,-99.99,,,-99.99,,2013-04-23 04:33:00,
2013-04-23 00:43:00,42.0,38.0,30.43,NE,39,5.0,-999.0,84,-99.99,,,-99.99,,2013-04-23 04:43:00,
2013-04-23 00:53:00,42.0,38.0,30.42,NE,39,4.0,-999.0,85,-99.99,,,-99.99,,2013-04-23 04:53:00,
2013-04-23 01:02:00,42.0,38.0,30.42,NNE,32,5.0,-999.0,86,-99.99,,,-99.99,,2013-04-23 05:02:00,
2013-04-23 01:12:00,42.0,38.0,30.42,NNE,32,5.0,-999.0,86,-99.99,,,-99.99,,2013-04-23 05:12:00,
2013-04-23 01:22:00,42.0,38.0,30.42,NE,53,6.0,-999.0,86,-99.99,,,-99.99,,2013-04-23 05:22:00,
2013-04-23 01:32:00,43.0,39.0,30.41,ENE,71,6.0,-999.0,86,-99.99,,,-99.99,,2013-04-23 05:32:00,
2013-04-23 01:42:00,43.0,39.0,30.41,ENE,71,6.0,-999.0,86,-99.99,,,-99.99,,2013-04-23 05:42:00,
2013-04-23 01:52:00,43.0,39.0,30.41,ENE,63,5.0,-999.0,86,-99.99,,,-99.99,,2013-04-23 05:52:00,
2013-04-23 02:02:00,43.0,39.0,30.40,NE,51,5.0,-999.0,86,-99.99,,,-99.99,,2013-04-23 06:02:00,
2013-04-23 02:12:00,43.0,39.0,30.40,NE,51,5.0,-999.0,86,-99.99,,,-99.99,,2013-04-23 06:12:00,
2013-04-23 02:22:00,43.0,39.0,30.39,ENE,67,7.0,-999.0,86,-99.99,,,-99.99,,2013-04-23 06:22:00,
2013-04-23 02:33:00,43.0,39.0,30.39,NNE,33,7.0,-999.0,86,-99.99,,,-99.99,,2013-04-23 06:33:00,
2013-04-23 02:42:00,43.0,39.0,30.39,NNE,33,7.0,-999.0,86,-99.99,,,-99.99,,2013-04-23 06:42:00,
2013-04-23 02:52:00,43.0,39.0,30.38,NNE,25,8.0,-999.0,87,-99.99,,,-99.99,,2013-04-23 06:52:00,
2013-04-23 03:02:00,42.0,38.0,30.38,NNE,33,7.0,-999.0,87,-99.99,,,-99.99,,2013-04-23 07:02:00,
2013-04-23 03:11:00,42.0,38.0,30.38,NNE,33,7.0,-999.0,87,-99.99,,,-99.99,,2013-04-23 07:11:00,
2013-04-23 03:22:00,42.0,38.0,30.37,NNE,27,7.0,-999.0,87,-99.99,,,-99.99,,2013-04-23 07:22:00,
2013-04-23 03:32:00,42.0,39.0,30.37,ENE,67,10.0,-999.0,88,-99.99,,,-99.99,,2013-04-23 07:32:00,
2013-04-23 03:42:00,42.0,39.0,30.37,ENE,67,10.0,-999.0,88,-99.99,,,-99.99,,2013-04-23 07:42:00,
2013-04-23 03:52:00,42.0,38.0,30.37,NNE,17,9.0,-999.0,87,-99.99,,,-99.99,,2013-04-23 07:52:00,
2013-04-23 04:02:00,42.0,38.0,30.36,NNE,32,8.0,-999.0,87,-99.99,,,-99.99,,2013-04-23 08:02:00,
2013-04-23 04:11:00,42.0,38.0,30.36,NNE,32,8.0,-999.0,87,-99.99,,,-99.99,,2013-04-23 08:11:00,
2013-04-23 04:21:00,42.0,38.0,30.36,NNE,20,9.0,-999.0,86,-99.99,,,-99.99,,2013-04-23 08:21:00,
2013-04-23 04:32:00,42.0,38.0,30.35,NE,41,8.0,-999.0,86,-99.99,,,-99.99,,2013-04-23 08:32:00,
2013-04-23 04:42:00,42.0,38.0,30.35,NE,41,8.0,-999.0,86,-99.99,,,-99.99,,2013-04-23 08:42:00,
2013-04-23 04:52:00,42.0,38.0,30.35,NE,36,8.0,-999.0,86,-99.99,,,-99.99,,2013-04-23 08:52:00,
2013-04-23 05:02:00,42.0,38.0,30.35,NNE,32,10.0,-999.0,85,-99.99,,,-99.99,,2013-04-23 09:02:00,
2013-04-23 05:11:00,42.0,38.0,30.35,NNE,32,10.0,-999.0,85,-99.99,,,-99.99,,2013-04-23 09:11:00,
2013-04-23 05:21:00,42.0,38.0,30.35,NNE,32,9.0,-999.0,85,-99.99,,,-99.99,,2013-04-23 09:21:00,
2013-04-23 05:33:00,41.0,37.0,30.35,NNE,27,10.0,-999.0,84,-99.99,,,-99.99,,2013-04-23 09:33:00,
2013-04-23 05:43:00,41.0,37.0,30.35,NNE,27,10.0,-999.0,84,-99.99,,,-99.99,,2013-04-23 09:43:00,
2013-04-23 05:53:00,41.0,37.0,30.34,NE,34,8.0,-999.0,85,-99.99,,,-99.99,,2013-04-23 09:53:00,
2013-04-23 06:03:00,41.0,37.0,30.34,NNE,30,9.0,-999.0,85,-99.99,,,-99.99,,2013-04-23 10:03:00,
2013-04-23 06:13:00,41.0,37.0,30.34,NNE,30,9.0,-999.0,85,-99.99,,,-99.99,,2013-04-23 10:13:00,
2013-04-23 06:23:00,41.0,36.0,30.33,NNE,19,10.0,-999.0,83,-99.99,,,-99.99,,2013-04-23 10:23:00,
2013-04-23 06:33:00,41.0,36.0,30.34,NNE,15,10.0,-999.0,82,-99.99,,,-99.99,,2013-04-23 10:33:00,
2013-04-23 06:42:00,41.0,36.0,30.34,NNE,15,10.0,-999.0,82,-99.99,,,-99.99,,2013-04-23 10:42:00,
2013-04-23 06:52:00,41.0,36.0,30.34,NNE,26,10.0,-999.0,82,-99.99,,,-99.99,,2013-04-23 10:52:00,
2013-04-23 07:03:00,41.0,36.0,30.34,NE,43,9.0,-999.0,83,-99.99,,,-99.99,,2013-04-23 11:03:00,
2013-04-23 07:12:00,41.0,36.0,30.34,NE,43,9.0,-999.0,83,-99.99,,,-99.99,,2013-04-23 11:12:00,
2013-04-23 07:21:00,41.0,36.0,30.34,NNE,22,9.0,-999.0,83,-99.99,,,-99.99,,2013-04-23 11:21:00,
2013-04-23 07:32:00,41.0,37.0,30.34,NNE,24,13.0,-999.0,84,-99.99,,,-99.99,,2013-04-23 11:32:00,
2013-04-23 07:42:00,41.0,37.0,30.34,NNE,24,13.0,-999.0,84,-99.99,,,-99.99,,2013-04-23 11:42:00,
2013-04-23 07:53:00,41.0,35.0,30.34,NNE,28,12.0,-999.0,79,-99.99,,,-99.99,,2013-04-23 11:53:00,
2013-04-23 08:02:00,41.0,35.0,30.34,NNE,19,13.0,-999.0,79,-99.99,,,-99.99,,2013-04-23 12:02:00,
2013-04-23 08:12:00,41.0,35.0,30.34,NNE,19,13.0,-999.0,79,-99.99,,,-99.99,,2013-04-23 12:12:00,
2013-04-23 08:22:00,41.0,35.0,30.34,NNE,16,11.0,-999.0,80,-99.99,,,-99.99,,2013-04-23 12:22:00,
2013-04-23 08:32:00,41.0,35.0,30.34,NNE,13,10.0,-999.0,80,-99.99,,,-99.99,,2013-04-23 12:32:00,
2013-04-23 08:42:00,41.0,35.0,30.34,NNE,13,10.0,-999.0,80,-99.99,,,-99.99,,2013-04-23 12:42:00,
2013-04-23 08:52:00,41.0,35.0,30.33,NNE,17,10.0,-999.0,80,-99.99,,,-99.99,,2013-04-23 12:52:00,
2013-04-23 09:01:00,42.0,36.0,30.34,NNE,15,9.0,-999.0,78,-99.99,,,-99.99,,2013-04-23 13:01:00,
2013-04-23 09:11:00,42.0,36.0,30.34,NNE,15,9.0,-999.0,78,-99.99,,,-99.99,,2013-04-23 13:11:00,
2013-04-23 09:22:00,42.0,36.0,30.33,North,355,8.0,-999.0,79,-99.99,,,-99.99,,2013-04-23 13:22:00,
2013-04-23 09:32:00,42.0,36.0,30.33,NNE,22,10.0,-999.0,78,-99.99,,,-99.99,,2013-04-23 13:32:00,
2013-04-23 09:42:00,42.0,36.0,30.33,NNE,22,10.0,-999.0,78,-99.99,,,-99.99,,2013-04-23 13:42:00,
2013-04-23 09:52:00,42.0,36.0,30.32,North,5,10.0,-999.0,79,-99.99,,,-99.99,,2013-04-23 13:52:00,
2013-04-23 10:02:00,43.0,37.0,30.31,NNE,19,9.0,-999.0,78,-99.99,,,-99.99,,2013-04-23 14:02:00,
2013-04-23 10:11:00,43.0,37.0,30.31,NNE,19,9.0,-999.0,78,-99.99,,,-99.99,,2013-04-23 14:11:00,
2013-04-23 10:22:00,44.0,38.0,30.31,NNE,29,10.0,-999.0,78,-99.99,,,-99.99,,2013-04-23 14:22:00,
2013-04-23 10:32:00,44.0,38.0,30.32,NNE,22,9.0,-999.0,78,-99.99,,,-99.99,,2013-04-23 14:32:00,
2013-04-23 10:42:00,44.0,38.0,30.32,NNE,22,9.0,-999.0,78,-99.99,,,-99.99,,2013-04-23 14:42:00,
2013-04-23 10:52:00,45.0,39.0,30.31,NNE,19,7.0,-999.0,79,-99.99,,,-99.99,,2013-04-23 14:52:00,
2013-04-23 11:01:00,45.0,39.0,30.31,NNE,19,7.0,-999.0,79,-99.99,,,-99.99,,2013-04-23 15:01:00,
2013-04-23 11:12:00,45.0,38.0,30.30,North,5,7.0,-999.0,76,-99.99,,,-99.99,,2013-04-23 15:12:00,
2013-04-23 11:22:00,46.0,39.0,30.29,NNE,12,6.0,-999.0,76,-99.99,,,-99.99,,2013-04-23 15:22:00,
2013-04-23 11:32:00,47.0,40.0,30.29,North,351,7.0,-999.0,77,-99.99,,,-99.99,,2013-04-23 15:32:00,
2013-04-23 11:42:00,47.0,40.0,30.29,North,351,7.0,-999.0,77,-99.99,,,-99.99,,2013-04-23 15:42:00,
2013-04-23 11:53:00,48.0,40.0,30.29,NNW,340,6.0,-999.0,74,-99.99,,,-99.99,,2013-04-23 15:53:00,
2013-04-23 12:03:00,48.0,40.0,30.28,North,350,6.0,-999.0,75,-99.99,,,-99.99,,2013-04-23 16:03:00,
2013-04-23 12:12:00,48.0,40.0,30.28,North,350,6.0,-999.0,75,-99.99,,,-99.99,,2013-04-23 16:12:00,
2013-04-23 12:23:00,49.0,41.0,30.28,NNW,337,7.0,-999.0,73,-99.99,,,-99.99,,2013-04-23 16:23:00,
2013-04-23 12:34:00,49.0,41.0,30.27,North,5,6.0,-999.0,74,-99.99,,,-99.99,,2013-04-23 16:34:00,
2013-04-23 12:43:00,49.0,41.0,30.27,North,5,6.0,-999.0,74,-99.99,,,-99.99,,2013-04-23 16:43:00,
2013-04-23 12:53:00,49.0,41.0,30.26,NNE,28,6.0,-999.0,73,-99.99,,,-99.99,,2013-04-23 16:53:00,
2013-04-23 13:02:00,49.0,41.0,30.26,ENE,65,6.0,-999.0,73,-99.99,,,-99.99,,2013-04-23 17:02:00,
2013-04-23 13:12:00,49.0,41.0,30.26,ENE,65,6.0,-999.0,73,-99.99,,,-99.99,,2013-04-23 17:12:00,
2013-04-23 13:22:00,50.0,42.0,30.25,North,355,6.0,-999.0,73,-99.99,,,-99.99,,2013-04-23 17:22:00,
2013-04-23 13:32:00,50.0,42.0,30.23,NE,44,7.0,-999.0,73,-99.99,,,-99.99,,2013-04-23 17:32:00,
2013-04-23 13:42:00,50.0,42.0,30.23,NE,44,7.0,-999.0,73,-99.99,,,-99.99,,2013-04-23 17:42:00,
2013-04-23 13:53:00,50.0,41.0,30.23,NE,43,8.0,-999.0,72,-99.99,,,-99.99,,2013-04-23 17:53:00,
2013-04-23 14:02:00,52.0,44.0,30.23,NNE,13,5.0,-999.0,74,-99.99,,,-99.99,,2013-04-23 18:02:00,
2013-04-23 14:12:00,52.0,44.0,30.23,NNE,13,5.0,-999.0,74,-99.99,,,-99.99,,2013-04-23 18:12:00,
2013-04-23 14:22:00,52.0,43.0,30.24,NNE,25,3.0,-999.0,72,-99.99,,,-99.99,,2013-04-23 18:22:00,
2013-04-23 14:32:00,52.0,43.0,30.24,NNE,16,4.0,-999.0,70,-99.99,,,-99.99,,2013-04-23 18:32:00,
2013-04-23 14:42:00,52.0,43.0,30.24,NNE,16,4.0,-999.0,70,-99.99,,,-99.99,,2013-04-23 18:42:00,
2013-04-23 14:52:00,52.0,43.0,30.24,NNE,26,3.0,-999.0,70,-99.99,,,-99.99,,2013-04-23 18:52:00,
2013-04-23 15:02:00,52.0,43.0,30.24,NW,324,2.0,-999.0,70,-99.99,,,-99.99,,2013-04-23 19:02:00,
2013-04-23 15:11:00,52.0,43.0,30.24,NW,324,2.0,-999.0,70,-99.99,,,-99.99,,2013-04-23 19:11:00,
2013-04-23 15:22:00,52.0,42.0,30.23,NNW,346,4.0,-999.0,69,-99.99,,,-99.99,,2013-04-23 19:22:00,
2013-04-23 15:32:00,52.0,43.0,30.24,NNW,347,3.0,-999.0,70,-99.99,,,-99.99,,2013-04-23 19:32:00,
2013-04-23 15:42:00,52.0,43.0,30.24,NNW,347,3.0,-999.0,70,-99.99,,,-99.99,,2013-04-23 19:42:00,
2013-04-23 15:52:00,52.0,42.0,30.23,North,5,5.0,-999.0,69,-99.99,,,-99.99,,2013-04-23 19:52:00,
2013-04-23 16:02:00,53.0,43.0,30.22,North,9,4.0,-999.0,69,-99.99,,,-99.99,,2013-04-23 20:02:00,
2013-04-23 16:11:00,53.0,43.0,30.22,North,9,4.0,-999.0,69,-99.99,,,-99.99,,2013-04-23 20:11:00,
2013-04-23 16:22:00,53.0,43.0,30.22,North,9,4.0,-999.0,69,-99.99,,,-99.99,,2013-04-23 20:22:00,
2013-04-23 16:32:00,53.0,43.0,30.21,North,360,6.0,-999.0,69,-99.99,,,-99.99,,2013-04-23 20:32:00,
2013-04-23 16:42:00,53.0,43.0,30.21,North,360,6.0,-999.0,69,-99.99,,,-99.99,,2013-04-23 20:42:00,
2013-04-23 16:52:00,53.0,43.0,30.19,NE,53,7.0,-999.0,70,-99.99,,,-99.99,,2013-04-23 20:52:00,
2013-04-23 17:02:00,53.0,43.0,30.18,NE,49,8.0,-999.0,69,-99.99,,,-99.99,,2013-04-23 21:02:00,
2013-04-23 17:12:00,53.0,43.0,30.18,NE,49,8.0,-999.0,69,-99.99,,,-99.99,,2013-04-23 21:12:00,
2013-04-23 17:22:00,53.0,43.0,30.18,ENE,71,5.0,-999.0,69,-99.99,,,-99.99,,2013-04-23 21:22:00,
2013-04-23 17:33:00,53.0,43.0,30.18,NE,38,6.0,-999.0,69,-99.99,,,-99.99,,2013-04-23 21:33:00,
2013-04-23 17:43:00,53.0,43.0,30.18,NE,38,6.0,-999.0,69,-99.99,,,-99.99,,2013-04-23 21:43:00,
2013-04-23 17:53:00,53.0,44.0,30.18,ENE,75,5.0,-999.0,71,-99.99,,,-99.99,,2013-04-23 21:53:00,
2013-04-23 18:03:00,53.0,44.0,30.17,ENE,71,6.0,-999.0,72,-99.99,,,-99.99,,2013-04-23 22:03:00,
2013-04-23 18:12:00,53.0,44.0,30.17,ENE,71,6.0,-999.0,72,-99.99,,,-99.99,,2013-04-23 22:12:00,
2013-04-23 18:23:00,53.0,44.0,30.17,NE,54,6.0,-999.0,72,-99.99,,,-99.99,,2013-04-23 22:23:00,
2013-04-23 18:33:00,52.0,44.0,30.16,ENE,69,8.0,-999.0,73,-99.99,,,-99.99,,2013-04-23 22:33:00,
2013-04-23 18:42:00,52.0,44.0,30.16,ENE,69,8.0,-999.0,73,-99.99,,,-99.99,,2013-04-23 22:42:00,
2013-04-23 18:52:00,52.0,44.0,30.15,NE,42,8.0,-999.0,73,-99.99,,,-99.99,,2013-04-23 22:52:00,
2013-04-23 19:03:00,51.0,43.0,30.14,NE,52,8.0,-999.0,74,-99.99,,,-99.99,,2013-04-23 23:03:00,
2013-04-23 19:12:00,51.0,43.0,30.14,NE,52,8.0,-999.0,74,-99.99,,,-99.99,,2013-04-23 23:12:00,
2013-04-23 19:22:00,51.0,44.0,30.14,NE,46,7.0,-999.0,76,-99.99,,,-99.99,,2013-04-23 23:22:00,
2013-04-23 19:32:00,51.0,44.0,30.15,NE,34,5.0,-999.0,77,-99.99,,,-99.99,,2013-04-23 23:32:00,
2013-04-23 19:42:00,51.0,44.0,30.15,NE,34,5.0,-999.0,77,-99.99,,,-99.99,,2013-04-23 23:42:00,
2013-04-23 19:52:00,50.0,44.0,30.16,NE,34,6.0,-999.0,79,-99.99,,,-99.99,,2013-04-23 23:52:00,
2013-04-23 20:02:00,50.0,44.0,30.17,NE,34,5.0,-999.0,80,-99.99,,,-99.99,,2013-04-24 00:02:00,
2013-04-23 20:11:00,50.0,44.0,30.17,NE,34,5.0,-999.0,80,-99.99,,,-99.99,,2013-04-24 00:11:00,
2013-04-23 20:22:00,49.0,43.0,30.17,NE,34,4.0,-999.0,81,-99.99,,,-99.99,,2013-04-24 00:22:00,
2013-04-23 20:32:00,49.0,44.0,30.16,NE,34,4.0,-999.0,82,-99.99,,,-99.99,,2013-04-24 00:32:00,
2013-04-23 20:42:00,49.0,44.0,30.16,NE,34,4.0,-999.0,82,-99.99,,,-99.99,,2013-04-24 00:42:00,
2013-04-23 20:52:00,49.0,44.0,30.16,NE,34,5.0,-999.0,83,-99.99,,,-99.99,,2013-04-24 00:52:00,
2013-04-23 21:02:00,48.0,43.0,30.16,NE,34,5.0,-999.0,83,-99.99,,,-99.99,,2013-04-24 01:02:00,
2013-04-23 21:11:00,48.0,43.0,30.16,NE,34,5.0,-999.0,83,-99.99,,,-99.99,,2013-04-24 01:11:00,
2013-04-23 21:21:00,48.0,43.0,30.16,NE,40,5.0,-999.0,84,-99.99,,,-99.99,,2013-04-24 01:21:00,
2013-04-23 21:32:00,48.0,43.0,30.16,NE,40,4.0,-999.0,84,-99.99,,,-99.99,,2013-04-24 01:32:00,
2013-04-23 21:42:00,48.0,43.0,30.16,NE,40,4.0,-999.0,84,-99.99,,,-99.99,,2013-04-24 01:42:00,
2013-04-23 21:52:00,48.0,44.0,30.16,NE,40,2.0,-999.0,85,-99.99,,,-99.99,,2013-04-24 01:52:00,
2013-04-23 22:02:00,48.0,44.0,30.16,NE,40,3.0,-999.0,85,-99.99,,,-99.99,,2013-04-24 02:02:00,
2013-04-23 22:19:00,48.0,44.0,30.16,NE,40,3.0,-999.0,85,-99.99,,,-99.99,,2013-04-24 02:19:00,
2013-04-23 22:30:00,48.0,44.0,30.16,NE,40,3.0,-999.0,85,-99.99,,,-99.99,,2013-04-24 02:30:00,
2013-04-23 22:40:00,47.0,43.0,30.15,NE,40,5.0,-999.0,86,-99.99,,,-99.99,,2013-04-24 02:40:00,
2013-04-23 22:48:00,47.0,43.0,30.15,NE,40,5.0,-999.0,86,-99.99,,,-99.99,,2013-04-24 02:48:00,
2013-04-23 23:01:00,47.0,43.0,30.15,NE,47,4.0,-999.0,86,-99.99,,,-99.99,,2013-04-24 03:01:00,
2013-04-23 23:10:00,46.0,42.0,30.15,NE,49,4.0,-999.0,87,-99.99,,,-99.99,,2013-04-24 03:10:00,
2013-04-23 23:18:00,46.0,42.0,30.15,NE,49,4.0,-999.0,87,-99.99,,,-99.99,,2013-04-24 03:18:00,
2013-04-23 23:31:00,45.0,41.0,30.14,NE,49,3.0,-999.0,87,-99.99,,,-99.99,,2013-04-24 03:31:00,
2013-04-23 23:51:00,45.0,42.0,30.14,NE,49,3.0,-999.0,89,-99.99,,,-99.99,,2013-04-24 03:51:00,